#timestamp,LO_Frequency,Hit,StdDev 
1513267215.6,286046997.4,N
1513267235.4,286046996.5,N
1513267255.3,286047000.9,N
1513267275.1,286047001.0,N
1513267276.0,286047001.0,N
1513267295.8,286046999.2,N
1513267315.7,286046998.7,N
1513267335.5,286047000.9,N
1513267355.3,286046999.3,N
1513267375.2,286047001.1,N
1513267395.0,286047000.3,N
1513267395.9,286047000.3,N
1513267415.8,286047000.1,N
1513267435.6,286047000.1,N
1513267455.4,286047000.1,N
1513267475.3,286046999.7,N
1513267495.1,286047004.0,N
1513267515.9,286047001.4,N
1513267535.7,286047000.5,N
1513267555.5,286046999.7,N
1513267575.4,286047000.1,N
1513267595.2,286047002.7,N
1513267615.1,286046999.9,N
1513267616.0,286046999.9,N
1513267635.8,286047002.8,N
1513267655.6,286047002.7,N
1513267675.5,286047004.3,N
1513267695.3,286047000.1,N
1513267715.1,286047000.0,N
1513267735.9,286047000.6,N
1513267755.7,286047001.4,N
1513267775.6,286047001.4,N
1513267795.4,286047002.1,N
1513267815.2,286047000.1,N
1513267835.1,286047000.3,N
1513267836.0,286047000.3,N
1513267855.8,286047000.3,N
1513267875.7,286047000.8,N
1513267895.5,286047001.1,N
1513267915.3,286047000.0,N
1513267935.2,286046998.2,N
1513267955.0,286046997.0,N
1513267955.9,286046997.0,N
1513267975.8,286046999.4,N
1513267995.6,286047000.4,N
1513268015.4,286047001.1,N
1513268035.3,286047000.5,N
1513268055.1,286047000.2,N
1513268075.8,286046999.2,N
1513268095.7,286046998.0,N
1513268115.5,286046998.1,N
1513268135.4,286046999.4,N
1513268155.2,286046998.9,N
1513268175.0,286046995.0,Y
1513268175.9,286046995.0,P
1513268195.8,286046997.0,N
1513268215.6,286046998.5,N
1513268235.5,286047001.0,N
1513268255.3,286046998.2,N
1513268275.1,286046999.6,N
1513268295.9,286046997.4,N
1513268315.7,286046997.6,N
1513268335.5,286046996.6,N
1513268355.4,286046996.8,N
1513268375.2,286046999.1,N
1513268395.1,286046998.7,N
1513268396.0,286046998.7,N
1513268415.8,286047001.1,N
1513268435.6,286047002.1,N
1513268455.5,286047000.6,N
1513268475.3,286047002.5,N
1513268495.2,286047001.8,N
1513268515.9,286046999.7,N
1513268535.7,286047002.8,N
1513268555.6,286047000.6,N
1513268575.4,286047000.6,N
1513268595.2,286047000.6,N
1513268615.1,286047004.0,N
1513268616.0,286047004.0,N
1513268635.8,286047002.3,N
1513268655.7,286047002.2,N
1513268675.5,286047003.4,N
1513268695.3,286047003.4,N
1513268715.2,286047004.2,N
1513268735.0,286047000.2,N
1513268735.9,286047000.2,N
1513268755.8,286047001.5,N
1513268775.6,286047001.2,N
1513268795.4,286046997.4,N
1513268815.3,286046995.7,N
1513268835.1,286046997.2,N
1513268855.8,286046998.5,N
1513268875.7,286047000.4,N
1513268895.5,286046997.2,N
1513268915.4,286046995.1,N
1513268935.2,286046995.1,N
1513268955.0,286046996.8,N
1513268955.9,286046996.8,N
1513268975.8,286046999.3,N
1513268995.6,286046999.0,N
1513269015.4,286046998.3,N
1513269035.3,286047000.7,N
1513269055.1,286046999.5,N
1513269075.9,286046997.9,N
1513269095.7,286046998.8,N
1513269115.5,286047000.0,N
1513269135.4,286046999.8,N
1513269155.2,286046998.1,N
1513269175.1,286047000.0,N
1513269176.0,286047000.0,N
1513269195.8,286047001.6,N
1513269215.6,286047004.2,N
1513269235.5,286047004.4,N
1513269255.3,286047003.9,N
1513269275.1,286047003.1,N
1513269295.9,286047004.4,N
1513269315.7,286047001.9,N
1513269335.6,286046999.8,N
1513269355.4,286047000.4,N
1513269375.2,286046999.9,N
1513269395.1,286047000.1,N
1513269396.0,286047000.1,N
1513269415.8,286047002.4,N
1513269435.7,286047002.4,N
1513269455.5,286047004.0,N
1513269475.3,286047003.8,N
1513269495.2,286047001.8,N
1513269515.9,286047004.2,N
1513269535.7,286047003.5,N
1513269555.6,286047003.4,N
1513269575.4,286047007.6,Y
1513269595.3,286046999.9,P
1513269615.1,286046997.9,N
1513269616.0,286046997.9,N
1513269635.8,286046998.2,N
1513269655.7,286047001.1,N
1513269675.5,286047002.2,N
1513269695.3,286047002.8,N
1513269715.2,286046998.8,N
1513269735.0,286046999.0,N
1513269735.9,286046999.0,N
1513269755.8,286046998.1,N
1513269775.6,286047000.6,N
1513269795.4,286047002.1,N
1513269815.3,286047001.6,N
1513269835.1,286047002.2,N
1513269855.9,286047000.6,N
1513269875.7,286047000.9,N
1513269895.5,286046996.5,N
1513269915.4,286046998.5,N
1513269935.2,286047001.0,N
1513269955.0,286047002.4,N
1513269955.9,286047002.4,N
1513269975.8,286047002.7,N
1513269995.6,286047002.3,N
1513270015.5,286047002.5,N
1513270035.3,286047001.4,N
1513270055.1,286046999.7,N
1513270075.9,286047000.5,N
1513270095.7,286047001.2,N
1513270115.5,286046998.7,N
1513270135.4,286046999.3,N
1513270155.2,286046997.5,N
1513270175.1,286046999.4,N
1513270176.0,286046999.4,N
1513270195.8,286046998.6,N
1513270215.6,286047000.9,N
1513270235.5,286047000.4,N
1513270255.3,286047000.2,N
1513270275.2,286047000.3,N
1513270295.9,286046999.8,N
1513270315.7,286047001.1,N
1513270335.6,286046999.8,N
1513270355.4,286047001.2,N
1513270375.2,286046999.4,N
1513270395.1,286046996.5,N
1513270396.0,286046996.5,N
1513270415.8,286047001.0,N
1513270435.7,286046998.3,N
1513270455.5,286047001.6,N
1513270475.3,286047001.7,N
1513270495.2,286047001.4,N
1513270515.0,286046999.8,N
1513270515.9,286046999.8,N
1513270535.8,286046999.7,N
1513270555.6,286047002.3,N
1513270575.4,286047000.0,N
1513270595.3,286047002.2,N
1513270615.1,286047004.3,N
1513270635.9,286047002.3,N
1513270655.7,286046998.8,N
1513270675.5,286046999.2,N
1513270695.4,286046999.5,N
1513270715.2,286046998.9,N
1513270735.0,286047000.5,N
1513270735.9,286047000.5,N
1513270755.8,286046999.8,N
1513270775.6,286047003.5,N
1513270795.5,286047001.3,N
